sat.trackr.live / text

‹ back to catalog

STARLINK-4722

NORAD 53775 · 2022-111C

PAYLOAD ACTIVE UNKNOWN

§ Identity

Operator
Country
US
Launch date
2022-09-11
Launch site
AFETR
Launch vehicle
Mass (kg)
RCS (m²)

Purposes: comms

External: N2YO · Heavens-Above · Gunter

§ Orbital elements

Epoch: 2026-05-24T19:18:54.365760Z

Period
95.44 min
Inclination
53.2154°
Eccentricity
0.0001510
Mean motion
15.08825408 rev/d
Perigee alt
538.7 km
Apogee alt
540.8 km
Semi-major
6,917.9 km
B*
-7.0918e-5
RAAN
292.6604°
Arg perigee
85.2281°
Mean anomaly
274.8883°
Rev number
20,518

§ Raw data

STARLINK-47221 53775U 22111C   26144.80479590 -.00001416  00000+0 -70918-4 0  99952 53775  53.2154 292.6604 0001510  85.2281 274.8883 15.08825408205188

JSON: /api/v1/satellites/53775 · /tle

For live sub-satellite position, see the globe view (requires WebGL).

§ Visibility from observer

Set your observer location to see the next 7 days of passes ≥ 10°. The values pass through the URL so the page stays shareable.

No JS? Fill the form by hand. The geolocation button needs JavaScript.